#timestamp,LO_Frequency,Hit 
1497837615.5,286047003.8,N
1497837635.3,286047003.0,N
1497837655.2,286047005.7,N
1497837675.9,286047007.3,Y
1497837695.7,286047002.8,N
1497837715.6,286047002.4,N
1497837735.4,286047000.4,N
1497837755.2,286047000.4,N
1497837775.1,286047001.4,N
1497837776.0,286047001.4,N
1497837795.8,286047003.9,N
1497837815.6,286047003.3,N
1497837835.5,286047002.9,N
1497837855.3,286047003.5,N
1497837875.1,286047003.6,N
1497837895.8,286047003.7,N
1497837915.7,286047004.8,N
1497837935.5,286047003.0,N
1497837955.3,286047005.2,N
1497837975.2,286047006.8,Y
1497837995.0,286047004.4,N
1497837995.9,286047004.4,N
1497838015.7,286047002.6,N
1497838035.6,286047002.4,N
1497838055.4,286047002.7,N
1497838075.2,286047001.5,N
1497838095.1,286047002.6,N
1497838096.0,286047002.6,N
1497838115.8,286047003.1,N
1497838135.6,286047005.4,N
1497838155.5,286047005.9,N
1497838175.3,286047004.9,N
1497838195.1,286047005.0,N
1497838215.9,286047007.1,Y
1497838235.7,286047000.1,N
1497838255.5,286046999.8,N
1497838275.4,286047000.8,N
1497838295.2,286046999.7,N
1497838315.0,286046999.7,N
1497838315.9,286046999.7,N
1497838335.8,286047002.3,N
1497838355.6,286047002.8,N
1497838375.4,286047001.5,N
1497838395.2,286047001.6,N
1497838415.1,286047000.1,N
1497838416.0,286047000.1,N
1497838435.8,286047002.4,N
1497838455.6,286047002.6,N
1497838475.5,286047004.4,N
1497838495.3,286047004.3,N
1497838515.1,286047002.9,N
1497838535.9,286047005.5,N
1497838555.7,286047003.5,N
1497838575.5,286047005.2,N
1497838595.4,286047003.3,N
1497838615.2,286047003.2,N
1497838635.0,286047004.6,N
1497838635.9,286047004.6,N
1497838655.7,286047005.1,N
1497838675.6,286047005.3,N
1497838695.4,286047005.4,N
1497838715.2,286047005.3,N
1497838735.1,286047005.1,N
1497838736.0,286047005.1,N
1497838755.8,286047006.7,Y
1497838775.6,286047003.8,N
1497838795.5,286047005.4,N
1497838815.3,286047001.7,N
1497838835.1,286047001.7,N
1497838855.9,286047004.0,N
1497838875.7,286047001.6,N
1497838895.5,286047003.8,N
1497838915.4,286047003.5,N
1497838935.2,286047002.9,N
1497838955.0,286047004.7,N
1497838955.9,286047004.7,N
1497838975.8,286047003.5,N
1497838995.6,286047003.6,N
1497839015.4,286047003.9,N
1497839035.2,286047003.4,N
1497839055.1,286047005.6,N
1497839056.0,286047005.6,N
1497839075.8,286047003.6,N
1497839095.6,286047005.5,N
1497839115.5,286047005.8,Y
1497839135.3,286047003.9,N
1497839155.1,286047003.1,N
1497839175.9,286047004.3,N
1497839195.7,286047003.2,N
1497839215.5,286047005.1,N
1497839235.4,286047005.0,N
1497839255.2,286047006.9,Y
1497839275.0,286047001.3,N
1497839275.9,286047001.3,N
1497839295.8,286047002.8,N
1497839315.6,286047002.1,N
1497839335.4,286047000.2,N
1497839355.3,286047000.8,N
1497839375.1,286047000.8,N
1497839376.0,286047000.8,N
1497839395.8,286046998.1,N
1497839415.7,286047000.0,N
1497839435.5,286047002.5,N
1497839455.3,286047004.4,N
1497839475.1,286047002.9,N
1497839495.9,286047003.4,N
1497839515.7,286047001.7,N
1497839535.5,286047001.3,N
1497839555.4,286047003.6,N
1497839575.2,286047001.9,N
1497839595.0,286047004.3,N
1497839595.9,286047004.3,N
1497839615.8,286047003.8,N
1497839635.6,286047003.6,N
1497839655.4,286047003.0,N
1497839675.3,286047004.5,N
1497839695.1,286047005.1,N
1497839696.0,286047005.1,N
1497839715.8,286047005.8,Y
1497839735.7,286046999.8,N
1497839755.5,286046998.6,N
1497839775.3,286046998.6,N
1497839795.1,286047002.5,N
1497839815.9,286047002.7,N
1497839835.7,286047002.5,N
1497839855.5,286047002.6,N
1497839875.4,286047001.0,N
1497839895.2,286047002.2,N
1497839915.0,286047002.0,N
1497839915.9,286047002.0,N
1497839935.8,286047002.3,N
1497839955.6,286047004.0,N
1497839975.4,286047001.3,N
1497839995.3,286047003.3,N
1497840015.1,286047003.4,N
1497840016.0,286047003.4,N
1497840035.8,286047005.6,Y
1497840055.7,286046999.8,N
1497840075.5,286047000.1,N
1497840095.3,286047002.4,N
1497840115.2,286046999.7,N
1497840135.9,286047002.6,N
1497840155.7,286047000.0,N
1497840175.5,286047000.8,N
1497840195.4,286047001.1,N
1497840215.2,286046999.0,N
1497840235.0,286047000.1,N
1497840235.9,286047000.1,N
1497840255.8,286047001.7,N
1497840275.6,286047002.7,N
1497840295.4,286047001.5,N
1497840315.3,286047001.9,N
1497840335.1,286047001.8,N
1497840336.0,286047001.8,N
1497840355.8,286047004.1,N
1497840375.7,286047003.7,N
1497840395.5,286047004.4,N
1497840415.3,286047003.1,N
1497840435.2,286047004.3,N
1497840455.9,286047006.0,Y
1497840475.7,286047000.3,N
1497840495.6,286047000.7,N
1497840515.4,286047000.4,N
1497840535.2,286046998.4,N
1497840555.0,286046999.3,N
1497840555.9,286046999.3,N
1497840575.8,286046998.4,N
1497840595.6,286047000.0,N
1497840615.4,286047000.0,N
1497840635.3,286047001.2,N
1497840655.1,286047001.2,N
1497840656.0,286047001.2,N
1497840675.8,286046999.4,N
1497840695.7,286047000.7,N
1497840715.5,286047002.4,N
1497840735.3,286047002.5,N
1497840755.2,286047002.3,N
1497840775.9,286047003.9,N
1497840795.7,286047003.8,N
1497840815.5,286047005.4,N
1497840835.4,286047005.6,N
1497840855.2,286047005.1,N
1497840875.0,286047005.8,Y
1497840876.0,286047005.8,N
1497840895.8,286047000.2,N
1497840915.6,286047004.3,N
1497840935.4,286047002.5,N
1497840955.3,286047004.4,N
1497840975.1,286047002.3,N
1497840995.8,286047001.0,N
1497841015.7,286047000.8,N
1497841035.5,286047000.3,N
1497841055.3,286047000.5,N
1497841075.2,286047000.6,N
1497841095.9,286047002.3,N
1497841115.7,286046999.9,N
1497841135.5,286046998.4,N
1497841155.4,286047000.1,N
1497841175.2,286046999.9,N
1497841195.0,286047000.0,N
1497841195.9,286047000.0,N
